User: anonymous   Login
Location: Unspecified
(0.0000°N, 0.0000°E)
Time: 23:22:32
(UTC+00:00)
Language:

STARLINK-30531 - Orbit

View from above orbital plane
View from above orbital plane
View from above satellite
View from above satellite

Ground track
Ground track

The orbit is defined by the following mean orbital elements,

1 57998U          26145.62258388 +.00000000 +00000-0 +27181-4 0 00004
2 57998  43.0068 352.4615 0001636 261.5856  98.4811 15.27578554    06
Epoch (UTC): 25 May 2026 14:56:31
Eccentricity: 0.0001636
inclination: 43.0068°
perigee height: 482 km
apogee height: 484 km
right ascension of ascending node: 352.4615°
argument of perigee: 261.5856°
revolutions per day: 15.27578554
mean anomaly at epoch: 98.4811°

The dashed part of the orbit path shows where the satellite is in the earth's shadow,  

DLR